TimeEST,TemperatureF,Dew PointF,Humidity,Sea Level PressureIn,VisibilityMPH,Wind Direction,Wind SpeedMPH,Gust SpeedMPH,PrecipitationIn,Events,Conditions,WindDirDegrees,DateUTC
12:52 AM,32.0,10.0,40,30.16,10.0,SSE,8.1,19.6,N/A,,Scattered Clouds,160,2014-03-01 05:52:00
1:52 AM,32.0,10.0,40,30.16,10.0,Variable,4.6,-,N/A,,Mostly Cloudy,0,2014-03-01 06:52:00
2:52 AM,30.9,10.0,42,30.15,10.0,Variable,3.5,-,N/A,,Mostly Cloudy,0,2014-03-01 07:52:00
3:52 AM,30.9,10.0,42,30.15,10.0,ESE,3.5,-,N/A,,Clear,120,2014-03-01 08:52:00
4:52 AM,30.9,10.0,42,30.16,10.0,Calm,Calm,-,N/A,,Mostly Cloudy,0,2014-03-01 09:52:00
5:52 AM,30.9,12.0,46,30.19,10.0,NNE,3.5,-,N/A,,Overcast,20,2014-03-01 10:52:00
6:52 AM,30.0,12.0,47,30.21,10.0,Calm,Calm,-,N/A,,Overcast,0,2014-03-01 11:52:00
7:52 AM,30.0,12.9,49,30.25,10.0,Calm,Calm,-,N/A,,Overcast,0,2014-03-01 12:52:00
8:52 AM,35.1,14.0,42,30.25,10.0,SW,3.5,-,N/A,,Overcast,230,2014-03-01 13:52:00
9:26 AM,37.0,15.1,41,30.21,10.0,West,4.6,-,N/A,,Overcast,270,2014-03-01 14:26:00
9:52 AM,39.0,18.0,43,30.25,10.0,West,6.9,-,N/A,,Overcast,260,2014-03-01 14:52:00
10:52 AM,41.0,23.0,49,30.25,10.0,WSW,6.9,-,N/A,,Overcast,240,2014-03-01 15:52:00
11:11 AM,42.1,26.1,53,30.21,10.0,SW,6.9,-,N/A,,Overcast,220,2014-03-01 16:11:00
11:52 AM,46.0,28.0,50,30.22,10.0,WSW,8.1,-,N/A,,Overcast,250,2014-03-01 16:52:00
12:52 PM,48.9,27.0,43,30.19,10.0,WSW,12.7,-,N/A,,Overcast,250,2014-03-01 17:52:00
1:52 PM,52.0,27.0,38,30.16,10.0,West,13.8,20.7,N/A,,Overcast,270,2014-03-01 18:52:00
2:52 PM,52.0,26.1,37,30.14,10.0,West,11.5,21.9,N/A,,Overcast,280,2014-03-01 19:52:00
3:52 PM,54.0,26.1,34,30.14,10.0,West,11.5,17.3,N/A,,Mostly Cloudy,260,2014-03-01 20:52:00
4:52 PM,54.0,27.0,35,30.13,10.0,WSW,10.4,-,N/A,,Clear,240,2014-03-01 21:52:00
5:52 PM,52.0,26.1,37,30.14,10.0,WSW,6.9,-,N/A,,Clear,240,2014-03-01 22:52:00
6:52 PM,50.0,26.1,39,30.16,10.0,SSW,3.5,-,N/A,,Clear,210,2014-03-01 23:52:00
7:52 PM,48.0,26.1,42,30.17,10.0,SW,4.6,-,N/A,,Clear,230,2014-03-02 00:52:00
8:52 PM,48.9,27.0,43,30.16,10.0,SW,5.8,-,N/A,,Clear,220,2014-03-02 01:52:00
9:52 PM,46.9,28.0,48,30.16,10.0,SW,5.8,-,N/A,,Scattered Clouds,230,2014-03-02 02:52:00
10:52 PM,46.0,30.0,54,30.15,10.0,WSW,10.4,-,N/A,,Mostly Cloudy,250,2014-03-02 03:52:00
11:52 PM,48.0,32.0,54,30.15,10.0,WSW,9.2,-,N/A,,Overcast,250,2014-03-02 04:52:00